TimeCDT,TemperatureF,Dew PointF,Humidity,Sea Level PressureIn,VisibilityMPH,Wind Direction,Wind SpeedMPH,Gust SpeedMPH,PrecipitationIn,Events,Conditions,WindDirDegrees,DateUTC
12:15 AM,39.2,28.4,65,29.98,10.0,NNE,13.8,-,N/A,,Overcast,20,2013-03-17 05:15:00
12:55 AM,39.2,28.4,65,29.98,10.0,NE,8.1,-,N/A,,Overcast,40,2013-03-17 05:55:00
1:15 AM,39.2,28.4,65,29.98,10.0,NNE,8.1,-,N/A,,Overcast,30,2013-03-17 06:15:00
1:55 AM,39.2,28.4,65,30.03,8.0,NW,4.6,-,0.03,,Overcast,320,2013-03-17 06:55:00
2:15 AM,39.2,28.4,65,30.03,7.0,NE,5.8,-,0.05,,Overcast,50,2013-03-17 07:15:00
2:55 AM,39.2,28.4,65,30.03,7.0,NNE,8.1,-,0.08,,Overcast,20,2013-03-17 07:55:00
3:15 AM,37.4,28.4,70,30.01,7.0,NNE,11.5,-,0.02,,Overcast,30,2013-03-17 08:15:00
3:35 AM,37.4,28.4,70,30.03,10.0,North,9.2,-,0.03,,Overcast,360,2013-03-17 08:35:00
4:15 AM,37.4,28.4,70,30.03,7.0,NNE,10.4,-,N/A,,Overcast,20,2013-03-17 09:15:00
4:35 AM,37.4,26.6,65,30.04,8.0,North,10.4,-,N/A,,Overcast,10,2013-03-17 09:35:00
4:55 AM,37.4,26.6,65,30.03,8.0,North,13.8,-,N/A,,Overcast,10,2013-03-17 09:55:00
5:15 AM,37.4,26.6,65,30.04,10.0,NNE,11.5,-,N/A,,Overcast,20,2013-03-17 10:15:00
5:55 AM,37.4,26.6,65,30.04,10.0,NNE,12.7,-,0.02,,Overcast,30,2013-03-17 10:55:00
6:15 AM,37.4,26.6,65,30.04,10.0,NNE,12.7,-,N/A,,Overcast,30,2013-03-17 11:15:00
6:35 AM,37.4,26.6,65,30.05,10.0,NNE,13.8,17.3,0.01,,Overcast,30,2013-03-17 11:35:00
6:55 AM,37.4,26.6,65,30.06,9.0,NNE,11.5,-,0.01,,Overcast,20,2013-03-17 11:55:00
7:15 AM,35.6,26.6,70,30.05,6.0,NNE,11.5,-,0.01,,Overcast,20,2013-03-17 12:15:00
7:35 AM,35.6,26.6,70,30.05,4.0,NE,11.5,-,0.02,,Overcast,40,2013-03-17 12:35:00
7:55 AM,35.6,26.6,70,30.04,8.0,ENE,11.5,-,0.02,,Overcast,60,2013-03-17 12:55:00
8:15 AM,37.4,26.6,65,30.04,7.0,ENE,12.7,-,0.02,,Overcast,60,2013-03-17 13:15:00
8:35 AM,37.4,26.6,65,30.07,9.0,North,12.7,-,0.05,,Overcast,10,2013-03-17 13:35:00
8:55 AM,35.6,26.6,70,30.05,7.0,NE,11.5,16.1,0.05,,Overcast,50,2013-03-17 13:55:00
9:15 AM,37.4,26.6,65,30.06,5.0,NE,12.7,-,0.02,,Overcast,40,2013-03-17 14:15:00
9:35 AM,37.4,26.6,65,30.05,4.0,NE,13.8,-,0.04,,Overcast,50,2013-03-17 14:35:00
9:55 AM,37.4,26.6,65,30.06,5.0,NNE,11.5,-,0.08,,Overcast,30,2013-03-17 14:55:00
10:15 AM,37.4,28.4,70,30.05,6.0,ENE,11.5,-,0.03,,Overcast,60,2013-03-17 15:15:00
10:35 AM,37.4,28.4,70,30.04,8.0,ENE,13.8,17.3,0.06,,Overcast,60,2013-03-17 15:35:00
10:55 AM,37.4,28.4,70,30.04,9.0,ENE,11.5,-,0.10,,Overcast,60,2013-03-17 15:55:00
11:15 AM,37.4,28.4,70,30.05,7.0,NE,11.5,16.1,0.06,,Overcast,50,2013-03-17 16:15:00
11:35 AM,37.4,28.4,70,30.07,9.0,NE,9.2,-,0.10,,Overcast,40,2013-03-17 16:35:00
11:55 AM,37.4,28.4,70,30.07,7.0,NE,9.2,-,0.19,,Overcast,50,2013-03-17 16:55:00
12:15 PM,37.4,28.4,70,30.07,9.0,NE,8.1,-,0.11,,Overcast,50,2013-03-17 17:15:00
12:35 PM,37.4,28.4,70,30.07,9.0,ENE,9.2,-,0.20,,Overcast,70,2013-03-17 17:35:00
12:55 PM,37.4,28.4,70,30.05,10.0,ENE,11.5,-,0.27,,Mostly Cloudy,70,2013-03-17 17:55:00
1:15 PM,37.4,28.4,70,30.02,10.0,East,12.7,-,0.03,,Overcast,80,2013-03-17 18:15:00
1:35 PM,37.4,28.4,70,30.00,10.0,East,16.1,19.6,0.04,,Mostly Cloudy,90,2013-03-17 18:35:00
1:55 PM,39.2,30.2,70,29.98,10.0,East,15.0,-,0.04,,Overcast,80,2013-03-17 18:55:00
2:15 PM,39.2,30.2,70,29.97,10.0,ENE,10.4,-,N/A,,Overcast,60,2013-03-17 19:15:00
2:35 PM,39.2,30.2,70,29.97,10.0,ENE,11.5,-,N/A,,Overcast,60,2013-03-17 19:35:00
2:55 PM,39.2,30.2,70,29.97,10.0,ENE,13.8,-,N/A,,Overcast,70,2013-03-17 19:55:00
3:35 PM,39.2,30.2,70,29.94,10.0,ENE,15.0,-,N/A,,Overcast,70,2013-03-17 20:35:00
3:55 PM,39.2,30.2,70,29.93,10.0,ENE,16.1,-,N/A,,Overcast,70,2013-03-17 20:55:00
4:15 PM,39.2,30.2,70,29.96,10.0,ENE,11.5,-,N/A,,Overcast,70,2013-03-17 21:15:00
4:35 PM,39.2,30.2,70,29.97,10.0,NE,10.4,-,0.01,,Overcast,50,2013-03-17 21:35:00
4:55 PM,39.2,30.2,70,29.92,10.0,ENE,16.1,-,0.07,,Overcast,70,2013-03-17 21:55:00
5:15 PM,39.2,30.2,70,29.92,10.0,ENE,13.8,-,0.05,,Overcast,60,2013-03-17 22:15:00
5:35 PM,39.2,28.4,65,29.92,10.0,ENE,12.7,-,0.06,,Overcast,60,2013-03-17 22:35:00
5:55 PM,39.2,28.4,65,29.91,9.0,ENE,16.1,20.7,0.08,,Overcast,70,2013-03-17 22:55:00
6:15 PM,39.2,28.4,65,29.93,9.0,NE,11.5,-,0.02,,Overcast,40,2013-03-17 23:15:00
6:35 PM,39.2,28.4,65,29.92,7.0,NE,15.0,-,0.05,,Overcast,50,2013-03-17 23:35:00
6:55 PM,37.4,28.4,70,29.91,6.0,NE,16.1,-,0.11,,Overcast,50,2013-03-17 23:55:00
7:15 PM,37.4,28.4,70,29.89,5.0,NE,17.3,23.0,0.03,,Overcast,50,2013-03-18 00:15:00
8:15 PM,37.4,28.4,70,29.85,10.0,East,17.3,23.0,N/A,,Overcast,80,2013-03-18 01:15:00
8:35 PM,37.4,28.4,70,29.85,8.0,East,13.8,24.2,N/A,,Overcast,80,2013-03-18 01:35:00
8:55 PM,37.4,28.4,70,29.84,7.0,ENE,18.4,-,N/A,,Overcast,70,2013-03-18 01:55:00
9:15 PM,37.4,28.4,70,29.84,9.0,East,16.1,20.7,N/A,,Overcast,80,2013-03-18 02:15:00
9:55 PM,37.4,28.4,70,29.85,10.0,East,13.8,-,0.06,,Overcast,100,2013-03-18 02:55:00
10:35 PM,39.2,28.4,65,29.84,10.0,ENE,5.8,-,0.05,,Overcast,70,2013-03-18 03:35:00
10:55 PM,39.2,28.4,65,29.85,9.0,NNE,6.9,-,0.08,,Overcast,30,2013-03-18 03:55:00
11:35 PM,39.2,30.2,70,29.81,10.0,ENE,11.5,-,0.02,,Overcast,60,2013-03-18 04:35:00
11:55 PM,39.2,28.4,65,29.81,10.0,ENE,10.4,-,0.02,,Overcast,60,2013-03-18 04:55:00